{"data":{"norad_id":69502,"intl_designator":"2026-132A","name":"STARS-X","alt_names":[],"object_type":"PAYLOAD","status":"ACTIVE","operator":null,"country":"JPN","launch_date":"2026-06-12","launch_site_code":"TANSC","launch_vehicle":null,"mission":null,"orbit_class":"UNKNOWN","rcs_meters":null,"size_class":null,"mass_kg":null,"dimensions":null,"purposes":[],"wikipedia_slug":null,"has_3d_model":false,"image_url":null,"decayed_at":null,"tle_current":{"epoch":"2026-09-20T03:13:21.450720Z","epoch_age_seconds":65002,"freshness":"FRESH","line1":"1 69502U 26132A   26263.13427605  .00001361  00000+0  11629-3 0  9995","line2":"2 69502  97.6832 325.5270 0011258 319.1850  40.8529 14.99271160 15001","mean_motion":14.9927116,"eccentricity":0.0011258,"inclination_deg":97.6832,"raan_deg":325.527,"arg_perigee_deg":319.185,"mean_anomaly_deg":40.8529,"bstar":0.00011629,"rev_number":1500,"period_min":96.046668435882,"perigee_km":561.32570163403,"apogee_km":576.96820618465,"semimajor_km":6947.2839539093,"source":"CELESTRAK","updated_at":"2026-09-20T09:00:24.937243Z"}}}